Location: Newark
(44.4156°N, 12.1972°E)
Time: 00:13:33
(UTC+00:00)

STARLINK-1126 - Pass Details

Date: 03 February 2020
Orbit: 348 x 351 km, 53.0° (Epoch: 17 February)

Event Time Altitude Azimuth Distance (km) Brightness Sun altitude
Rises 16:50:42 0° 300° (WNW) 2,158 7.4 -5.6°
Reaches altitude 10° 16:52:45 10° 294° (WNW) 1,312 6.4 -5.9°
Maximum altitude 16:55:34 45° 220° (SW) 488 3.9 -6.4°
Drops below altitude 10° 16:58:21 10° 145° (SE) 1,304 5.4 -6.9°
Sets 17:00:24 0° 139° (SE) 2,142 6.4 -7.2°
